Weather History for Leesburg, FL

Change the Weather History Date:

Tuesday, November 6, 2012

  Actual Average Record
Temperature  
Mean Temperature 66 °F -  
Max Temperature 75 °F 76 °F 88 °F (1959)
Min Temperature 57 °F 54 °F 38 °F (1962)
Cooling Degree Days 1    
Growing Degree Days 16 (Base 50)    
Moisture  
Dew Point 57 °F    
Average Humidity 80    
Maximum Humidity 100    
Minimum Humidity 51    
Precipitation  
Precipitation 0.04 in - - ()
Sea Level Pressure  
Sea Level Pressure 29.90 in    
Wind  
Wind Speed 3 mph (WNW)    
Max Wind Speed 13 mph    
Max Gust Speed 23 mph    
Visibility 9 miles    
Events Rain    
Averages and records for this station are not official NWS values.
T = Trace of Precipitation, MM = Missing Value Source: NWS Daily Summary

Daily Weather History Graph

Daily Weather History Graph

Search for Another Location

Airport:

Trip Planner

Search our weather history database for the weather conditions in past years. The results will help you decide how hot, cold, wet, or windy it might be!

Date:

Astronomy

Nov. 06, 2012 Rise Set
Actual Time 6:43 AM EST 5:37 PM EST
Civil Twilight 6:18 AM EST 6:02 PM EST
Nautical Twilight 5:50 AM EST 6:30 PM EST
Astronomical Twilight 5:22 AM EST 6:58 PM EST
Moon No Moon Rise 12:38 PM EST (11/6)
Length of Visible Light 11h 43m
Length of Day
10h 54m
Waning Gibbous, 53% of the Moon is Illuminated
Nov 6
Waning Gibbous
Nov 6
Last Quarter
Nov 13
New
Nov 20
First Quarter
Nov 28
Full

Hourly Weather History & Observations

Time (EST) Temp. Dew Point Humidity Pressure Visibility Wind Dir Wind Speed Gust Speed Precip Events Conditions
12:35 AM 59.0 °F 55.4 °F 88% 29.95 in 10.0 mi Calm Calm - N/A   Mostly Cloudy
12:45 AM 59.0 °F 55.4 °F 88% 29.95 in 10.0 mi Calm Calm - N/A   Scattered Clouds
12:53 AM 59.0 °F 55.9 °F 90% 29.95 in 10.0 mi Calm Calm - N/A   Mostly Cloudy
1:41 AM 57.2 °F 55.4 °F 94% 29.93 in 10.0 mi Calm Calm - N/A   Scattered Clouds
1:53 AM 57.9 °F 55.9 °F 93% 29.93 in 10.0 mi Calm Calm - N/A   Clear
2:53 AM 57.9 °F 55.9 °F 93% 29.90 in 9.0 mi Calm Calm - N/A   Clear
3:53 AM 57.0 °F 55.0 °F 93% 29.91 in 8.0 mi Calm Calm - N/A   Clear
4:53 AM 59.0 °F 57.9 °F 96% 29.91 in 7.0 mi Calm Calm - N/A   Clear
5:53 AM 59.0 °F 57.0 °F 93% 29.91 in 8.0 mi Calm Calm - N/A   Clear
6:53 AM 60.1 °F 57.0 °F 90% 29.93 in 8.0 mi Calm Calm - N/A   Clear
7:53 AM 61.0 °F 59.0 °F 93% 29.96 in 8.0 mi WNW 4.6 mph - N/A   Mostly Cloudy
8:05 AM 60.8 °F 59.0 °F 94% 29.97 in 2.0 mi WNW 4.6 mph - 0.03 in Rain Rain
8:16 AM 60.8 °F 60.8 °F 100% 29.97 in 5.0 mi NW 3.5 mph - 0.03 in Rain Light Rain
8:53 AM 63.0 °F 61.0 °F 93% 29.96 in 5.0 mi NNE 3.5 mph - 0.04 in Rain Light Rain
9:53 AM 63.0 °F 61.0 °F 93% 29.95 in 6.0 mi Calm Calm - 0.00 in   Mostly Cloudy
10:53 AM 68.0 °F 59.0 °F 73% 29.92 in 10.0 mi South 3.5 mph - N/A   Partly Cloudy
11:53 AM 70.0 °F 57.0 °F 63% 29.90 in 10.0 mi Variable 3.5 mph - N/A   Clear
12:53 PM 75.0 °F 57.9 °F 55% 29.86 in 10.0 mi SSW 6.9 mph - N/A   Partly Cloudy
1:53 PM 75.0 °F 60.1 °F 60% 29.84 in 10.0 mi SW 12.7 mph - N/A   Mostly Cloudy
2:53 PM 75.9 °F 57.9 °F 54% 29.82 in 10.0 mi WSW 11.5 mph 16.1 mph N/A   Partly Cloudy
3:53 PM 75.0 °F 59.0 °F 57% 29.83 in 10.0 mi West 8.1 mph - 0.00 in   Mostly Cloudy
4:53 PM 73.0 °F 54.0 °F 51% 29.83 in 10.0 mi WNW 11.5 mph 23.0 mph N/A   Clear
5:53 PM 68.0 °F 55.0 °F 63% 29.84 in 10.0 mi WNW 8.1 mph - N/A   Clear
6:53 PM 64.9 °F 53.1 °F 65% 29.86 in 10.0 mi NW 5.8 mph - N/A   Clear
7:53 PM 64.9 °F 54.0 °F 68% 29.88 in 10.0 mi NW 9.2 mph - N/A   Clear
8:53 PM 63.0 °F 54.0 °F 72% 29.89 in 10.0 mi NW 6.9 mph - N/A   Clear
9:53 PM 61.0 °F 54.0 °F 78% 29.89 in 10.0 mi NW 5.8 mph - N/A   Clear
10:53 PM 60.1 °F 54.0 °F 80% 29.89 in 10.0 mi NW 4.6 mph - N/A   Clear
11:53 PM 59.0 °F 54.0 °F 83% 29.88 in 10.0 mi NW 5.8 mph - N/A   Clear